CW9392 Weather Reports


Display with metric or nautical units.
time (UTC)temp
F
wind
direction
speed
MPH
gust
MPH
rain 1hr
in
rain 24hr
in
rain mn
in
humidity
%
barometer
mb
20230206090204 18 146 3.0 3.0 0.00 0.00 0.00 89 1015.3
20230206085205 18 146 3.0 3.0 0.00 0.00 0.00 89 1015.1
20230206084204 18 146 3.0 3.0 0.00 0.00 0.00 89 1015.1
20230206083203 18 146 3.0 3.0 0.00 0.00 0.00 89 1015.1
20230206082203 18 146 3.0 3.0 0.00 0.00 0.00 89 1015.0
20230206081203 18 146 3.0 3.0 0.00 0.00 0.00 89 1014.9
20230206080223 18 146 3.0 3.0 0.00 0.00 0.00 89 1014.9
20230206075202 18 146 3.0 3.0 0.00 0.00 0.00 89 1014.9
20230206074202 18 146 3.0 3.0 0.00 0.00 0.00 89 1014.8
20230206073244 18 146 3.0 3.0 0.00 0.00 0.00 89 1014.8
20230206072202 17 146 3.0 3.0 0.00 0.00 0.00 89 1014.7
20230206071202 17 146 3.0 3.0 0.00 0.00 0.00 89 1014.8
20230206070203 17 146 3.0 3.0 0.00 0.00 0.00 89 1014.9
20230206065202 17 146 3.0 3.0 0.00 0.00 0.00 89 1014.9
20230206064203 17 146 3.0 3.0 0.00 0.00 0.00 89 1014.9
20230206063223 17 146 3.0 3.0 0.00 0.00 0.00 89 1014.8
20230206062203 17 146 3.0 3.0 0.00 0.00 0.00 89 1014.7
20230206061202 17 146 3.0 3.0 0.00 0.00 0.00 89 1014.7
20230206060202 17 146 3.0 3.0 0.00 0.00 0.00 89 1014.6
20230206055202 17 146 3.0 3.0 0.00 0.00 0.00 89 1014.9
20230206054223 17 146 3.0 3.0 0.00 0.00 0.00 89 1014.8
20230206053224 17 146 3.0 3.0 0.00 0.00 0.00 89 1015.0
20230206052203 17 146 3.0 3.0 0.00 0.00 0.00 89 1015.1
20230206051202 16 146 3.0 3.0 0.00 0.00 0.00 90 1015.2
20230206050202 16 146 3.0 3.0 0.00 0.00 0.00 90 1015.3
20230206045202 16 146 3.0 3.0 0.00 0.00 0.00 90 1015.3
20230206044203 16 146 3.0 3.0 0.00 0.00 0.00 90 1015.4
20230206043202 16 146 3.0 3.0 0.00 0.00 0.00 90 1015.5
20230206042202 16 146 3.0 3.0 0.00 0.00 0.00 89 1015.7
20230206041203 16 146 3.0 3.0 0.00 0.00 0.00 89 1015.7
20230206040202 16 146 3.0 3.0 0.00 0.00 0.00 89 1015.8
20230206035203 16 146 3.0 3.0 0.00 0.00 0.00 89 1016.0
20230206034202 16 146 3.0 3.0 0.00 0.00 0.00 89 1015.9
20230206033203 16 146 3.0 3.0 0.00 0.00 0.00 89 1016.1
20230206032203 16 146 3.0 3.0 0.00 0.00 0.00 89 1016.0
20230206031224 16 146 3.0 3.0 0.00 0.00 0.00 89 1016.1
20230206030224 16 146 3.0 3.0 0.00 0.00 0.00 89 1016.1
20230206025203 16 146 3.0 3.0 0.00 0.00 0.00 89 1016.2
20230206024203 16 146 3.0 3.0 0.00 0.00 0.00 89 1016.3
20230206023223 16 146 3.0 3.0 0.00 0.00 0.00 89 1016.3
20230206022203 16 146 3.0 3.0 0.00 0.00 0.00 89 1016.2
20230206021224 16 146 3.0 3.0 0.00 0.00 0.00 89 1016.3
20230206020202 16 146 3.0 3.0 0.00 0.00 0.00 89 1016.4
20230206015224 16 146 3.0 3.0 0.00 0.00 0.00 89 1016.3
20230206014202 16 146 3.0 3.0 0.00 0.00 0.00 89 1016.4
20230206013203 16 146 3.0 3.0 0.00 0.00 0.00 89 1016.5
20230206012203 16 146 3.0 3.0 0.00 0.00 0.00 89 1016.4
20230206011203 16 146 3.0 3.0 0.00 0.00 0.00 89 1016.6
20230206010203 16 146 3.0 3.0 0.00 0.00 0.00 89 1016.6
20230206005203 16 146 3.0 3.0 0.00 0.00 0.00 89 1016.7
20230206004202 16 146 3.0 3.0 0.00 0.00 0.00 89 1016.5
20230206003203 16 146 3.0 3.0 0.00 0.00 0.00 89 1016.4
20230206002203 16 146 3.0 3.0 0.00 0.00 0.00 89 1016.4
20230206001203 16 146 3.0 3.0 0.00 0.00 0.00 89 1016.6
20230206000203 16 146 3.0 3.0 0.00 0.00 0.00 88 1016.6
20230205235203 16 146 3.0 3.0 0.00 0.00 0.00 88 1016.7
20230205234203 16 146 3.0 3.0 0.00 0.00 0.00 88 1016.8
20230205233202 16 146 3.0 3.0 0.00 0.00 0.00 87 1016.6
20230205232203 16 146 3.0 3.0 0.00 0.00 0.00 86 1016.4
20230205231202 16 146 3.0 3.0 0.00 0.00 0.00 86 1016.4
20230205230203 16 146 3.0 3.0 0.00 0.00 0.00 86 1016.3
20230205225202 16 146 3.0 3.0 0.00 0.00 0.00 85 1016.3
20230205224203 16 146 3.0 3.0 0.00 0.00 0.00 84 1016.3
20230205223203 16 146 3.0 3.0 0.00 0.00 0.00 84 1016.3
20230205222203 16 146 3.0 3.0 0.00 0.00 0.00 84 1016.3
20230205221203 16 146 3.0 3.0 0.00 0.00 0.00 84 1016.2
20230205220202 16 146 3.0 3.0 0.00 0.00 0.00 84 1016.1
20230205215203 16 146 3.0 3.0 0.00 0.00 0.00 84 1016.0
20230205214202 16 146 3.0 3.0 0.00 0.00 0.00 84 1016.0
20230205213203 15 146 3.0 3.0 0.00 0.00 0.00 83 1016.0
20230205212202 15 146 3.0 3.0 0.00 0.00 0.00 83 1015.9
20230205211203 14 133 2.0 4.0 0.00 0.00 0.00 84 1015.9
20230205210202 14 140 2.0 4.0 0.00 0.00 0.00 84 1015.9
20230205205203 14 137 2.0 4.0 0.00 0.00 0.00 84 1016.0
20230205204203 14 140 3.0 4.0 0.00 0.00 0.00 83 1016.1
20230205203203 14 139 3.0 4.0 0.00 0.00 0.00 83 1016.2
20230205202203 14 124 2.0 3.0 0.00 0.00 0.00 82 1016.1
20230205201203 14 132 2.0 3.0 0.00 0.00 0.00 81 1016.1
20230205200202 14 138 2.0 3.0 0.00 0.00 0.00 80 1016.3
20230205195224 14 139 2.0 4.0 0.00 0.00 0.00 79 1016.3
20230205194203 14 137 2.0 4.0 0.00 0.00 0.00 77 1016.4
20230205193202 13 139 3.0 5.0 0.00 0.00 0.00 76 1016.5
20230205192203 13 133 2.0 4.0 0.00 0.00 0.00 76 1016.4
20230205191202 13 140 3.0 5.0 0.00 0.00 0.00 76 1016.3
20230205190203 13 134 2.0 4.0 0.00 0.00 0.00 74 1016.5
20230205185202 13 134 3.0 5.0 0.00 0.00 0.00 72 1016.6
20230205184203 13 134 3.0 5.0 0.00 0.00 0.00 68 1016.6
20230205183202 13 140 4.0 7.0 0.00 0.00 0.00 63 1016.6
20230205182223 13 131 3.0 5.0 0.00 0.00 0.00 61 1016.7
20230205181202 14 132 2.0 5.0 0.00 0.00 0.00 61 1016.8
20230205180202 14 130 3.0 5.0 0.00 0.00 0.00 60 1016.9
20230205175202 14 133 3.0 4.0 0.00 0.00 0.00 59 1017.1
20230205174223 13 127 3.0 5.0 0.00 0.00 0.00 60 1017.3
20230205173224 13 129 3.0 5.0 0.00 0.00 0.00 60 1017.5
20230205172202 13 135 3.0 5.0 0.00 0.00 0.00 61 1017.6
20230205171203 12 137 3.0 5.0 0.00 0.00 0.00 60 1018.0
20230205170202 12 137 3.0 5.0 0.00 0.00 0.00 62 1018.3
20230205165245 11 129 3.0 4.0 0.00 0.00 0.00 63 1018.4
20230205164203 11 127 3.0 4.0 0.00 0.00 0.00 64 1018.7
20230205163202 10 126 3.0 5.0 0.00 0.00 0.00 63 1018.8
20230205162203 9 133 3.0 6.0 0.00 0.00 0.00 63 1019.1
20230205161203 9 143 4.0 6.0 0.00 0.00 0.00 62 1019.2
20230205160202 9 147 3.0 6.0 0.00 0.00 0.00 63 1019.4
20230205155203 9 141 3.0 5.0 0.00 0.00 0.00 64 1019.5
20230205154224 8 137 3.0 5.0 0.00 0.00 0.00 65 1019.9
20230205153203 7 147 2.0 5.0 0.00 0.00 0.00 65 1020.3
20230205152203 6 143 3.0 5.0 0.00 0.00 0.00 65 1020.5
20230205151203 6 139 2.0 4.0 0.00 0.00 0.00 67 1020.7
20230205150204 4 262 4.0 4.0 0.00 0.00 0.00 67 1020.7
20230205145203 3 262 4.0 4.0 0.00 0.00 0.00 68 1021.1
20230205144203 2 262 4.0 4.0 0.00 0.00 0.00 69 1021.4
20230205143203 1 262 4.0 4.0 0.00 0.00 0.00 69 1021.5
20230205142203 0 262 4.0 4.0 0.00 0.00 0.00 69 1021.6
20230205141203 0 262 4.0 4.0 0.00 0.00 0.00 68 1021.8
20230205140203 -1 262 4.0 4.0 0.00 0.00 0.00 68 1022.0
20230205135204 -1 262 4.0 4.0 0.00 0.00 0.00 68 1022.1
20230205134224 -1 262 4.0 4.0 0.00 0.00 0.00 68 1022.1
20230205133203 -2 262 4.0 4.0 0.00 0.00 0.00 69 1022.3
20230205132224 -2 262 4.0 4.0 0.00 0.00 0.00 70 1022.4
20230205131203 -3 262 4.0 4.0 0.00 0.00 0.00 71 1022.6
20230205130204 -3 262 4.0 4.0 0.00 0.00 0.00 71 1022.8
20230205125224 -4 262 4.0 4.0 0.00 0.00 0.00 72 1022.9
20230205124203 -4 262 4.0 4.0 0.00 0.00 0.00 71 1023.0
20230205123203 -7 262 4.0 4.0 0.00 0.00 0.00 67 1023.1
20230205122203 -7 262 4.0 4.0 0.00 0.00 0.00 67 1023.1
20230205121206 -7 262 4.0 4.0 0.00 0.00 0.00 67 1023.2
20230205120205 -7 262 4.0 4.0 0.00 0.00 0.00 67 1023.3
20230205115205 -7 262 4.0 4.0 0.00 0.00 0.00 67 1023.5
20230205114205 -7 262 4.0 4.0 0.00 0.00 0.00 67 1023.7
20230205113205 -7 262 4.0 4.0 0.00 0.00 0.00 67 1023.5
20230205112227 -7 262 4.0 4.0 0.00 0.00 0.00 67 1023.6
20230205111205 -7 262 4.0 4.0 0.00 0.00 0.00 67 1023.5
20230205110206 -7 262 4.0 4.0 0.00 0.00 0.00 67 1023.6
20230205105205 -7 262 4.0 4.0 0.00 0.00 0.00 67 1023.7
20230205104205 -7 262 4.0 4.0 0.00 0.00 0.00 67 1023.6
20230205103227 -7 262 4.0 4.0 0.00 0.00 0.00 67 1023.7
20230205102205 -7 262 4.0 4.0 0.00 0.00 0.00 67 1023.7
20230205101206 -7 262 4.0 4.0 0.00 0.00 0.00 67 1023.9
20230205100205 -7 262 4.0 4.0 0.00 0.00 0.00 67 1024.0
20230205095227 -7 262 4.0 4.0 0.00 0.00 0.00 67 1024.3
20230205094206 -7 262 4.0 4.0 0.00 0.00 0.00 67 1024.4
20230205093205 -7 262 4.0 4.0 0.00 0.00 0.00 67 1024.8
20230205092227 -7 262 4.0 4.0 0.00 0.00 0.00 67 1025.0
20230205091205 -7 262 4.0 4.0 0.00 0.00 0.00 67 1025.0